Powrót do katalogu

STARLINK-35472

AktywnyŁącznośćVLEO
NORAD 65913·PAYLOAD·🇺🇸 United States

Wystrzelony Oct 8, 2025 z Vandenberg Space Force Base

Loading…

Następne Przeloty (najbliższe 24 godziny)

TLE

ŚwieżeSource: CelesTrak SupGP

Epoka: Sep 14, 2026, 15:35 UTC

1 65913C 25225D   26257.64979167 -.00006050  00000+0 -17881-3 0  2578
2 65913  53.1603   5.1375 0001340  71.6840 115.7377 15.34384919    18

Śledź STARLINK-35472 w czasie rzeczywistym z AllMySat

Download on the App Store